GSAT-17

Last updated on Fri Apr 25 2025 00:02:28 GMT+0000 (Coordinated Universal Time)

1 42815U 17040B 25113.90696192 -.00000256 00000+0 00000+0 0 9998 2 42815 0.0973 86.2468 0002881 223.4486 322.5034 1.00270332 28583
UTC large
Height (km)
Speed (km/s)
/
Latitude / Longitude
Inclination (degrees)
Orbital Period (minutes)
Azimuth
Elevation
Range (km)
Doppler Factor

Next 0 passes for location: London (51.5072 / 0.1276)

Sorry there are no passes over London.